BAW1 EGLL-KJFK

Flight info

Callsign BAW1
Flight time 3h 27m
Altitude 28000
Route CPT DCT ROTLU/N0740F280F430 DCT PEWBI/M080F300 DCT 5041N01500W/M200F450PLUS NATSM 42N067W DCT KENDA/M100F490 DCT LINND DCT OWENZ DCT CAMRN
Aircraft CONC/H-SRWXY/C

Departure

Time 2026-05-04 14:25
Airport London Heathrow Airport (EGLL)

Arrival

Time 2026-05-04 17:52
Airport John F. Kennedy International Airport (KJFK)
Time Latitude Longitude Altitude Speed Heading
2026-05-04 13:46 51.46109 -0.44486 93 ft 0 kts 294°
2026-05-04 14:08 51.46108 -0.44483 93 ft 2 kts 294°
2026-05-04 14:08 51.46103 -0.44449 96 ft 4 kts 302°
2026-05-04 14:08 51.46097 -0.44411 96 ft 4 kts 332°
2026-05-04 14:09 51.46055 -0.44382 97 ft 4 kts 20°
2026-05-04 14:09 51.46032 -0.44395 96 ft 1 kts 23°
2026-05-04 14:10 51.46028 -0.44398 96 ft 0 kts 23°
2026-05-04 14:13 51.46045 -0.44386 97 ft 6 kts 23°
2026-05-04 14:13 51.46098 -0.44350 94 ft 11 kts 23°
2026-05-04 14:13 51.46183 -0.44292 93 ft 13 kts 23°
2026-05-04 14:14 51.46251 -0.44245 95 ft 8 kts 23°
2026-05-04 14:14 51.46337 -0.44178 95 ft 5 kts 28°
2026-05-04 14:14 51.46352 -0.44165 97 ft 0 kts 28°
2026-05-04 14:15 51.46440 -0.44084 96 ft 16 kts 30°
2026-05-04 14:16 51.46596 -0.44057 95 ft 2 kts
2026-05-04 14:16 51.46598 -0.44056 94 ft 0 kts
2026-05-04 14:17 51.46606 -0.44056 93 ft 3 kts
2026-05-04 14:17 51.46654 -0.44011 96 ft 17 kts 52°
2026-05-04 14:17 51.46667 -0.43686 93 ft 17 kts 91°
2026-05-04 14:18 51.46732 -0.43611 93 ft 14 kts
2026-05-04 14:18 51.46932 -0.43607 93 ft 13 kts 356°
2026-05-04 14:19 51.47073 -0.43614 93 ft 10 kts 359°
2026-05-04 14:19 51.47138 -0.43606 93 ft 9 kts
2026-05-04 14:19 51.47199 -0.43596 95 ft 7 kts
2026-05-04 14:19 51.47219 -0.43594 95 ft 0 kts
2026-05-04 14:21 51.47238 -0.43593 96 ft 10 kts
2026-05-04 14:21 51.47319 -0.43592 96 ft 11 kts 359°
2026-05-04 14:21 51.47392 -0.43594 96 ft 9 kts 359°
2026-05-04 14:21 51.47443 -0.43595 93 ft 7 kts 359°
2026-05-04 14:22 51.47490 -0.43595 93 ft 7 kts
2026-05-04 14:22 51.47564 -0.43590 93 ft 11 kts
2026-05-04 14:22 51.47635 -0.43505 96 ft 14 kts 49°
2026-05-04 14:22 51.47692 -0.43389 95 ft 12 kts 44°
2026-05-04 14:23 51.47763 -0.43470 94 ft 3 kts 284°
2026-05-04 14:23 51.47763 -0.43477 95 ft 0 kts 276°
2026-05-04 14:24 51.47767 -0.43742 95 ft 59 kts 270°
2026-05-04 14:24 51.47761 -0.44787 96 ft 127 kts 270°
2026-05-04 14:24 51.47761 -0.46538 96 ft 185 kts 270°
2026-05-04 14:24 51.47785 -0.48858 97 ft 224 kts 271°
2026-05-04 14:25 51.47781 -0.51443 903 ft 230 kts 267°
2026-05-04 14:25 51.47285 -0.55929 3622 ft 195 kts 257°
2026-05-04 14:25 51.46946 -0.58185 4090 ft 222 kts 256°
2026-05-04 14:26 51.46525 -0.60826 4208 ft 258 kts 256°
2026-05-04 14:26 51.46130 -0.63549 4805 ft 252 kts 258°
2026-05-04 14:26 51.45837 -0.66353 5314 ft 252 kts 263°
2026-05-04 14:26 51.45664 -0.69201 5709 ft 262 kts 265°
2026-05-04 14:27 51.45518 -0.72148 5855 ft 266 kts 265°
2026-05-04 14:27 51.45398 -0.75100 5937 ft 266 kts 267°
2026-05-04 14:27 51.45347 -0.78072 5963 ft 266 kts 268°
2026-05-04 14:27 51.45329 -0.81042 5971 ft 266 kts 269°
2026-05-04 14:28 51.45327 -0.84009 5982 ft 267 kts 270°
2026-05-04 14:28 51.45380 -0.86939 6002 ft 267 kts 272°
2026-05-04 14:28 51.45534 -0.89900 6009 ft 267 kts 277°
2026-05-04 14:28 51.45820 -0.92814 6006 ft 268 kts 279°
2026-05-04 14:29 51.46511 -0.98672 6010 ft 267 kts 279°
2026-05-04 14:29 51.47189 -1.04522 7212 ft 270 kts 279°
2026-05-04 14:30 51.47525 -1.07477 8029 ft 271 kts 278°
2026-05-04 14:30 51.47863 -1.10482 8830 ft 275 kts 278°
2026-05-04 14:30 51.48545 -1.16594 10418 ft 287 kts 275°
2026-05-04 14:31 51.48671 -1.19880 11241 ft 304 kts 268°
2026-05-04 14:31 51.48431 -1.27098 13006 ft 344 kts 264°
2026-05-04 14:32 51.47732 -1.35109 14607 ft 382 kts 259°
2026-05-04 14:32 51.47246 -1.39409 15355 ft 401 kts 258°
2026-05-04 14:32 51.46731 -1.43896 16124 ft 419 kts 258°
2026-05-04 14:32 51.46197 -1.48599 16921 ft 437 kts 258°
2026-05-04 14:33 51.45647 -1.53490 17747 ft 454 kts 258°
2026-05-04 14:33 51.45077 -1.58547 18546 ft 470 kts 258°
2026-05-04 14:33 51.44482 -1.63798 19258 ft 486 kts 258°
2026-05-04 14:33 51.43868 -1.69180 20037 ft 500 kts 258°
2026-05-04 14:34 51.43233 -1.74735 20843 ft 507 kts 258°
2026-05-04 14:34 51.42593 -1.80305 21641 ft 511 kts 258°
2026-05-04 14:34 51.41943 -1.85929 22462 ft 517 kts 258°
2026-05-04 14:34 51.41280 -1.91643 23270 ft 524 kts 258°
2026-05-04 14:35 51.40612 -1.97380 24019 ft 529 kts 258°
2026-05-04 14:35 51.39929 -2.03225 24726 ft 535 kts 258°
2026-05-04 14:35 51.39237 -2.09106 25413 ft 542 kts 258°
2026-05-04 14:35 51.38530 -2.15085 25755 ft 549 kts 257°
2026-05-04 14:36 51.37816 -2.21107 25904 ft 552 kts 257°
2026-05-04 14:36 51.37097 -2.27140 25966 ft 552 kts 257°
2026-05-04 14:36 51.36375 -2.33176 25994 ft 553 kts 257°
2026-05-04 14:36 51.35647 -2.39222 26010 ft 554 kts 257°
2026-05-04 14:37 51.34916 -2.45272 26010 ft 552 kts 257°
2026-05-04 14:37 51.34189 -2.51262 26080 ft 544 kts 257°
2026-05-04 14:37 51.33471 -2.57157 26918 ft 541 kts 257°
2026-05-04 14:37 51.32747 -2.63059 27733 ft 540 kts 257°
2026-05-04 14:38 51.32033 -2.68877 28560 ft 526 kts 257°
2026-05-04 14:38 51.31374 -2.74630 29421 ft 529 kts 261°
2026-05-04 14:38 51.30991 -2.80433 30275 ft 536 kts 266°
2026-05-04 14:38 51.30944 -2.86459 30714 ft 546 kts 269°
2026-05-04 14:39 51.30998 -2.92472 30892 ft 539 kts 269°
2026-05-04 14:39 51.31135 -3.04496 30988 ft 545 kts 270°
2026-05-04 14:40 51.31304 -3.22669 31012 ft 546 kts 269°
2026-05-04 14:40 51.31398 -3.34821 31010 ft 547 kts 269°
2026-05-04 14:41 51.31481 -3.47002 31016 ft 549 kts 269°
2026-05-04 14:42 51.31608 -3.71471 31010 ft 553 kts 269°
2026-05-04 14:42 51.31652 -3.83797 31007 ft 554 kts 269°
2026-05-04 14:43 51.31684 -3.96113 31001 ft 555 kts 269°
2026-05-04 14:43 51.31703 -4.08475 31001 ft 557 kts 269°
2026-05-04 14:44 51.31709 -4.20857 31013 ft 557 kts 269°
2026-05-04 14:44 51.31701 -4.33251 31015 ft 559 kts 269°
2026-05-04 14:45 51.31681 -4.45704 31016 ft 560 kts 269°
2026-05-04 14:45 51.31646 -4.58268 31470 ft 577 kts 269°
2026-05-04 14:46 51.31624 -4.64739 32229 ft 587 kts 269°
2026-05-04 14:46 51.31598 -4.71283 33006 ft 591 kts 269°
2026-05-04 14:46 51.31567 -4.77895 33532 ft 599 kts 269°
2026-05-04 14:46 51.31532 -4.84626 33811 ft 613 kts 269°
2026-05-04 14:47 51.31492 -4.91534 34090 ft 632 kts 269°
2026-05-04 14:47 51.31459 -4.98653 34230 ft 651 kts 270°
2026-05-04 14:47 51.31380 -5.06007 34368 ft 670 kts 268°
2026-05-04 14:47 51.31267 -5.10977 34454 ft 682 kts 268°
2026-05-04 14:48 51.31097 -5.18644 34774 ft 696 kts 268°
2026-05-04 14:48 51.30923 -5.26434 35224 ft 708 kts 268°
2026-05-04 14:48 51.30743 -5.34372 35641 ft 720 kts 268°
2026-05-04 14:48 51.30555 -5.42435 36057 ft 732 kts 268°
2026-05-04 14:49 51.30359 -5.50630 36448 ft 743 kts 268°
2026-05-04 14:49 51.30154 -5.58930 36829 ft 754 kts 268°
2026-05-04 14:49 51.29941 -5.67355 37177 ft 764 kts 268°
2026-05-04 14:49 51.29719 -5.75895 37508 ft 775 kts 267°
2026-05-04 14:50 51.29487 -5.84553 37736 ft 786 kts 267°
2026-05-04 14:50 51.29245 -5.93350 37864 ft 798 kts 267°
2026-05-04 14:50 51.28993 -6.02263 37937 ft 811 kts 267°
2026-05-04 14:50 51.28729 -6.11331 37984 ft 823 kts 267°
2026-05-04 14:51 51.28455 -6.20537 38004 ft 837 kts 267°
2026-05-04 14:51 51.28169 -6.29889 38030 ft 852 kts 267°
2026-05-04 14:51 51.27868 -6.39447 38117 ft 866 kts 267°
2026-05-04 14:51 51.27560 -6.49004 39612 ft 861 kts 267°
2026-05-04 14:52 51.27249 -6.58430 40721 ft 863 kts 267°
2026-05-04 14:52 51.26923 -6.68045 41044 ft 875 kts 267°
2026-05-04 14:52 51.26583 -6.77823 41454 ft 886 kts 267°
2026-05-04 14:52 51.26232 -6.87700 41898 ft 898 kts 266°
2026-05-04 14:53 51.25867 -6.97725 42357 ft 911 kts 266°
2026-05-04 14:53 51.25489 -7.07887 42846 ft 925 kts 266°
2026-05-04 14:53 51.25094 -7.18220 43369 ft 939 kts 266°
2026-05-04 14:53 51.24685 -7.28707 43893 ft 954 kts 266°
2026-05-04 14:54 51.24259 -7.39370 44404 ft 969 kts 266°
2026-05-04 14:54 51.23818 -7.50164 44925 ft 983 kts 266°
2026-05-04 14:54 51.23359 -7.61138 45463 ft 997 kts 266°
2026-05-04 14:54 51.22886 -7.72208 45755 ft 1007 kts 266°
2026-05-04 14:55 51.22397 -7.83387 45906 ft 1014 kts 266°
2026-05-04 14:55 51.21894 -7.94646 46059 ft 1020 kts 266°
2026-05-04 14:55 51.21378 -8.05962 46260 ft 1026 kts 266°
2026-05-04 14:55 51.20847 -8.17336 46428 ft 1031 kts 266°
2026-05-04 14:56 51.20303 -8.28765 46597 ft 1037 kts 265°
2026-05-04 14:56 51.19746 -8.40238 46746 ft 1042 kts 265°
2026-05-04 14:56 51.19173 -8.51785 46909 ft 1047 kts 265°
2026-05-04 14:56 51.18586 -8.63377 47059 ft 1052 kts 265°
2026-05-04 14:57 51.17985 -8.75038 47196 ft 1057 kts 265°
2026-05-04 14:57 51.17370 -8.86733 47337 ft 1061 kts 265°
2026-05-04 14:57 51.16741 -8.98451 47472 ft 1065 kts 265°
2026-05-04 14:57 51.16098 -9.10231 47593 ft 1069 kts 265°
2026-05-04 14:58 51.15440 -9.22045 47722 ft 1073 kts 265°
2026-05-04 14:58 51.14768 -9.33909 47837 ft 1076 kts 265°
2026-05-04 14:58 51.14083 -9.45788 47960 ft 1080 kts 265°
2026-05-04 14:58 51.13383 -9.57703 48068 ft 1083 kts 265°
2026-05-04 14:59 51.12668 -9.69661 48172 ft 1086 kts 265°
2026-05-04 14:59 51.11940 -9.81633 48270 ft 1089 kts 265°
2026-05-04 14:59 51.10440 -10.05686 48454 ft 1095 kts 264°
2026-05-04 15:00 51.09667 -10.17758 48548 ft 1098 kts 264°
2026-05-04 15:00 51.08082 -10.41957 48723 ft 1103 kts 264°
2026-05-04 15:01 51.06438 -10.66256 48895 ft 1108 kts 264°
2026-05-04 15:01 51.05658 -10.77523 48971 ft 1110 kts 264°
2026-05-04 15:01 51.03996 -11.01020 49097 ft 1114 kts 264°
2026-05-04 15:02 51.02213 -11.25523 49233 ft 1118 kts 264°
2026-05-04 15:02 51.00372 -11.50065 49364 ft 1122 kts 264°
2026-05-04 15:03 50.98473 -11.74687 49474 ft 1125 kts 263°
2026-05-04 15:03 50.96531 -11.99178 49592 ft 1128 kts 263°
2026-05-04 15:04 50.94517 -12.23904 49684 ft 1131 kts 263°
2026-05-04 15:04 50.92448 -12.48649 49788 ft 1134 kts 263°
2026-05-04 15:05 50.90319 -12.73442 49877 ft 1136 kts 263°
2026-05-04 15:05 50.88135 -12.98255 49978 ft 1139 kts 262°
2026-05-04 15:06 50.85893 -13.23094 50068 ft 1141 kts 262°
2026-05-04 15:07 50.82424 -13.60399 50180 ft 1144 kts 262°
2026-05-04 15:07 50.80040 -13.85291 50274 ft 1146 kts 262°
2026-05-04 15:08 50.77601 -14.10170 50463 ft 1146 kts 262°
2026-05-04 15:08 50.76362 -14.22598 50703 ft 1145 kts 262°
2026-05-04 15:08 50.75111 -14.35010 50937 ft 1144 kts 261°
2026-05-04 15:09 50.72585 -14.59662 51005 ft 1146 kts 261°
2026-05-04 15:09 50.69986 -14.84479 51304 ft 1146 kts 261°
2026-05-04 15:10 50.67948 -15.09351 51687 ft 1142 kts 271°
2026-05-04 15:10 50.68328 -15.21827 51683 ft 1141 kts 277°
2026-05-04 15:10 50.70567 -15.46665 51507 ft 1145 kts 277°
2026-05-04 15:11 50.71205 -15.59164 51898 ft 1143 kts 274°
2026-05-04 15:11 50.71830 -15.71649 52195 ft 1141 kts 274°
2026-05-04 15:11 50.72363 -15.84150 52243 ft 1142 kts 275°
2026-05-04 15:12 50.73448 -16.09195 52199 ft 1145 kts 274°
2026-05-04 15:12 50.73968 -16.21733 52465 ft 1144 kts 274°
2026-05-04 15:12 50.74474 -16.34258 52778 ft 1143 kts 274°
2026-05-04 15:12 50.74967 -16.46786 52914 ft 1144 kts 274°
2026-05-04 15:13 50.75447 -16.59328 52848 ft 1146 kts 274°
2026-05-04 15:13 50.76369 -16.84466 53000 ft 1147 kts 274°
2026-05-04 15:13 50.76810 -16.97046 53292 ft 1146 kts 274°
2026-05-04 15:14 50.77238 -17.09617 53503 ft 1146 kts 274°
2026-05-04 15:14 50.78052 -17.34791 53512 ft 1149 kts 274°
2026-05-04 15:15 50.78814 -17.60004 53858 ft 1148 kts 273°
2026-05-04 15:15 50.79174 -17.72604 54177 ft 1147 kts 273°
2026-05-04 15:15 50.79521 -17.85204 54392 ft 1146 kts 273°
2026-05-04 15:16 50.80474 -18.22849 54507 ft 1149 kts 273°
2026-05-04 15:16 50.81045 -18.48070 54952 ft 1147 kts 272°
2026-05-04 15:17 50.81310 -18.60657 55159 ft 1146 kts 272°
2026-05-04 15:17 50.82023 -18.98465 55277 ft 1148 kts 272°
2026-05-04 15:18 50.82234 -19.11087 55437 ft 1147 kts 272°
2026-05-04 15:18 50.82431 -19.23707 55691 ft 1146 kts 272°
2026-05-04 15:18 50.82614 -19.36288 55862 ft 1145 kts 272°
2026-05-04 15:19 50.82940 -19.61487 55883 ft 1146 kts 272°
2026-05-04 15:19 50.83324 -19.99298 56214 ft 1145 kts 271°
2026-05-04 15:20 50.83442 -20.11899 56377 ft 1144 kts 271°
2026-05-04 15:20 50.83542 -20.24483 56441 ft 1144 kts 271°
2026-05-04 15:20 50.83704 -20.49663 56461 ft 1145 kts 271°
2026-05-04 15:21 50.83810 -20.74846 56675 ft 1144 kts 271°
2026-05-04 15:21 50.83864 -21.00017 56845 ft 1144 kts 271°
2026-05-04 15:22 50.83869 -21.12613 56844 ft 1145 kts 271°
2026-05-04 15:22 50.83807 -21.50389 56996 ft 1144 kts 270°
2026-05-04 15:23 50.83758 -21.62973 57111 ft 1144 kts 270°
2026-05-04 15:23 50.83697 -21.75537 57204 ft 1143 kts 270°
2026-05-04 15:23 50.83533 -22.00708 57262 ft 1143 kts 270°
2026-05-04 15:24 50.83044 -22.51005 57409 ft 1143 kts 270°
2026-05-04 15:25 50.82721 -22.75968 57499 ft 1143 kts 269°
2026-05-04 15:26 50.82132 -23.13653 57503 ft 1143 kts 269°
2026-05-04 15:26 50.81422 -23.51317 57672 ft 1142 kts 269°
2026-05-04 15:27 50.80591 -23.88959 57748 ft 1142 kts 269°
2026-05-04 15:28 50.79660 -24.25776 57890 ft 1141 kts 268°
2026-05-04 15:29 50.78591 -24.63330 57949 ft 1141 kts 268°
2026-05-04 15:30 50.76978 -25.13408 58094 ft 1140 kts 268°
2026-05-04 15:30 50.75628 -25.50924 58100 ft 1141 kts 267°
2026-05-04 15:31 50.74156 -25.88442 58135 ft 1141 kts 267°
2026-05-04 15:32 50.71437 -26.50902 58172 ft 1141 kts 266°
2026-05-04 15:34 50.68384 -27.13289 58242 ft 1141 kts 266°
2026-05-04 15:34 50.66395 -27.50653 58285 ft 1140 kts 266°
2026-05-04 15:35 50.64285 -27.87993 58319 ft 1140 kts 265°
2026-05-04 15:36 50.62060 -28.25247 58412 ft 1139 kts 265°
2026-05-04 15:36 50.60774 -28.45889 58424 ft 1139 kts 265°
2026-05-04 15:37 50.59181 -28.70693 58425 ft 1139 kts 265°
2026-05-04 15:37 50.57535 -28.95465 58461 ft 1139 kts 264°
2026-05-04 15:38 50.55837 -29.20233 58496 ft 1139 kts 264°
2026-05-04 15:38 50.54086 -29.44980 58482 ft 1139 kts 264°
2026-05-04 15:39 50.52283 -29.69706 58476 ft 1139 kts 264°
2026-05-04 15:40 50.49474 -30.06767 58544 ft 1139 kts 263°
2026-05-04 15:40 50.47508 -30.31431 58585 ft 1139 kts 263°
2026-05-04 15:41 50.45493 -30.56086 58587 ft 1139 kts 263°
2026-05-04 15:41 50.43424 -30.80728 58581 ft 1139 kts 263°
2026-05-04 15:42 50.41306 -31.05332 58647 ft 1139 kts 263°
2026-05-04 15:42 50.39149 -31.29752 58678 ft 1139 kts 263°
2026-05-04 15:43 50.36926 -31.54321 58702 ft 1139 kts 263°
2026-05-04 15:43 50.34653 -31.78848 58698 ft 1139 kts 262°
2026-05-04 15:44 50.32325 -32.03384 58701 ft 1139 kts 262°
2026-05-04 15:44 50.29947 -32.27891 58755 ft 1139 kts 262°
2026-05-04 15:45 50.27519 -32.52346 58816 ft 1138 kts 262°
2026-05-04 15:45 50.25040 -32.76773 58818 ft 1138 kts 262°
2026-05-04 15:46 50.22510 -33.01184 58904 ft 1138 kts 262°
2026-05-04 15:46 50.19931 -33.25544 59031 ft 1137 kts 261°
2026-05-04 15:47 50.17302 -33.49871 59104 ft 1137 kts 261°
2026-05-04 15:47 50.14623 -33.74156 59164 ft 1137 kts 261°
2026-05-04 15:48 50.11892 -33.98436 59225 ft 1137 kts 261°
2026-05-04 15:48 50.07704 -34.34771 59387 ft 1136 kts 261°
2026-05-04 15:49 50.04851 -34.58933 59491 ft 1136 kts 260°
2026-05-04 15:49 50.01947 -34.83086 59589 ft 1135 kts 260°
2026-05-04 15:50 49.98993 -35.07202 59705 ft 1135 kts 260°
2026-05-04 15:50 49.95995 -35.31245 59840 ft 1134 kts 259°
2026-05-04 15:51 49.93059 -35.54384 60110 ft 1132 kts 259°
2026-05-04 15:51 49.89970 -35.78324 60258 ft 1131 kts 259°
2026-05-04 15:52 49.86969 -36.01184 60300 ft 1131 kts 259°
2026-05-04 15:52 49.83784 -36.25055 60324 ft 1131 kts 259°
2026-05-04 15:53 49.80552 -36.48885 60323 ft 1131 kts 258°
2026-05-04 15:53 49.77267 -36.72704 60317 ft 1132 kts 258°
2026-05-04 15:54 49.73936 -36.96478 60314 ft 1132 kts 258°
2026-05-04 15:54 49.70551 -37.20253 60317 ft 1133 kts 258°
2026-05-04 15:55 49.67279 -37.42889 60308 ft 1133 kts 258°
2026-05-04 15:55 49.63768 -37.66812 60295 ft 1134 kts 257°
2026-05-04 15:56 49.60364 -37.89657 60295 ft 1135 kts 257°
2026-05-04 15:56 49.56781 -38.13351 60288 ft 1136 kts 257°
2026-05-04 15:57 49.53282 -38.36158 60280 ft 1136 kts 257°
2026-05-04 15:57 49.49601 -38.59803 60271 ft 1136 kts 257°
2026-05-04 15:58 49.45873 -38.83411 60252 ft 1136 kts 257°
2026-05-04 15:58 49.42095 -39.06989 60259 ft 1137 kts 256°
2026-05-04 15:59 49.38265 -39.30558 60241 ft 1138 kts 256°
2026-05-04 15:59 49.34386 -39.54099 60229 ft 1139 kts 256°
2026-05-04 16:00 49.30455 -39.77626 60221 ft 1140 kts 256°
2026-05-04 16:00 49.26471 -40.01142 60216 ft 1142 kts 255°
2026-05-04 16:01 49.22443 -40.24662 60196 ft 1143 kts 255°
2026-05-04 16:01 49.18360 -40.48178 60200 ft 1145 kts 255°
2026-05-04 16:02 49.14225 -40.71675 60180 ft 1146 kts 255°
2026-05-04 16:03 49.08076 -41.06060 60152 ft 1148 kts 255°
2026-05-04 16:03 49.03812 -41.29526 60151 ft 1149 kts 254°
2026-05-04 16:04 48.99496 -41.52979 60131 ft 1150 kts 254°
2026-05-04 16:04 48.92925 -41.88119 60116 ft 1152 kts 254°
2026-05-04 16:05 48.88485 -42.11497 60098 ft 1152 kts 253°
2026-05-04 16:06 48.81758 -42.46376 60079 ft 1152 kts 253°
2026-05-04 16:07 48.72602 -42.92854 60055 ft 1149 kts 253°
2026-05-04 16:08 48.63281 -43.39053 60013 ft 1146 kts 252°
2026-05-04 16:09 48.51424 -43.96311 59974 ft 1140 kts 252°
2026-05-04 16:10 48.41779 -44.41713 59919 ft 1135 kts 251°
2026-05-04 16:11 48.31998 -44.86752 59894 ft 1131 kts 251°
2026-05-04 16:12 48.17066 -45.53692 59867 ft 1125 kts 250°
2026-05-04 16:13 48.06936 -45.97925 59866 ft 1122 kts 250°
2026-05-04 16:14 47.96665 -46.41866 59885 ft 1118 kts 250°
2026-05-04 16:15 47.88870 -46.74631 59573 ft 1117 kts 249°
2026-05-04 16:16 47.83620 -46.96426 58727 ft 1123 kts 249°
2026-05-04 16:16 47.75579 -47.29400 56791 ft 1136 kts 249°
2026-05-04 16:17 47.70151 -47.51383 56750 ft 1131 kts 249°
2026-05-04 16:18 47.61985 -47.84055 55947 ft 1132 kts 248°
2026-05-04 16:18 47.59229 -47.94977 55637 ft 1133 kts 248°
2026-05-04 16:19 47.50907 -48.27645 55526 ft 1128 kts 248°
2026-05-04 16:19 47.45324 -48.49301 54965 ft 1129 kts 248°
2026-05-04 16:20 47.36856 -48.81761 54370 ft 1129 kts 248°
2026-05-04 16:20 47.31130 -49.03460 54051 ft 1128 kts 247°
2026-05-04 16:21 47.22541 -49.35630 53110 ft 1132 kts 247°
2026-05-04 16:22 47.16738 -49.57119 52942 ft 1130 kts 247°
2026-05-04 16:22 47.07966 -49.89239 52432 ft 1130 kts 246°
2026-05-04 16:23 46.99099 -50.21229 52159 ft 1128 kts 246°
2026-05-04 16:24 46.88153 -50.60117 51640 ft 1128 kts 246°
2026-05-04 16:25 46.82133 -50.81241 51604 ft 1126 kts 246°
2026-05-04 16:26 46.69984 -51.23324 51117 ft 1125 kts 246°
2026-05-04 16:26 46.60778 -51.54737 50822 ft 1125 kts 245°
2026-05-04 16:27 46.54597 -51.75608 50623 ft 1124 kts 245°
2026-05-04 16:28 46.45260 -52.06805 50453 ft 1123 kts 245°
2026-05-04 16:28 46.35837 -52.37899 50192 ft 1122 kts 245°
2026-05-04 16:29 46.23168 -52.79109 49849 ft 1122 kts 245°
2026-05-04 16:31 46.09163 -53.31492 49564 ft 1121 kts 250°
2026-05-04 16:32 45.93699 -53.94853 49517 ft 1117 kts 249°
2026-05-04 16:33 45.83230 -54.36791 49448 ft 1115 kts 249°
2026-05-04 16:34 45.75325 -54.67960 49413 ft 1114 kts 249°
2026-05-04 16:35 45.59216 -55.30205 49379 ft 1111 kts 249°
2026-05-04 16:36 45.51046 -55.61151 49371 ft 1110 kts 248°
2026-05-04 16:37 45.42804 -55.91966 49367 ft 1109 kts 248°
2026-05-04 16:38 45.31700 -56.32865 49382 ft 1108 kts 248°
2026-05-04 16:39 45.17628 -56.83712 49384 ft 1106 kts 248°
2026-05-04 16:40 45.06224 -57.24158 49410 ft 1105 kts 247°
2026-05-04 16:41 44.91780 -57.74448 49402 ft 1104 kts 247°
2026-05-04 16:43 44.77131 -58.24433 49409 ft 1104 kts 247°
2026-05-04 16:43 44.68235 -58.54310 49426 ft 1103 kts 246°
2026-05-04 16:45 44.50238 -59.13700 49467 ft 1102 kts 246°
2026-05-04 16:46 44.35008 -59.62905 49489 ft 1102 kts 246°
2026-05-04 16:47 44.22734 -60.01930 49508 ft 1102 kts 248°
2026-05-04 16:48 44.12134 -60.41967 49492 ft 1102 kts 249°
2026-05-04 16:49 44.01292 -60.81830 49517 ft 1102 kts 249°
2026-05-04 16:50 43.90280 -61.21696 49534 ft 1103 kts 248°
2026-05-04 16:51 43.81993 -61.51277 49561 ft 1103 kts 248°
2026-05-04 16:52 43.70776 -61.90768 49617 ft 1103 kts 248°
2026-05-04 16:53 43.62274 -62.20287 49635 ft 1103 kts 248°
2026-05-04 16:54 43.50818 -62.59522 49656 ft 1103 kts 248°
2026-05-04 16:55 43.33377 -63.18120 49682 ft 1104 kts 247°
2026-05-04 16:56 43.18607 -63.66722 49717 ft 1104 kts 247°
2026-05-04 16:57 43.09641 -63.95788 49743 ft 1104 kts 247°
2026-05-04 16:58 43.00610 -64.24745 49577 ft 1101 kts 246°
2026-05-04 16:58 42.97592 -64.34341 49895 ft 1098 kts 246°
2026-05-04 17:00 42.79416 -64.91465 49954 ft 1097 kts 245°
2026-05-04 17:01 42.62532 -65.37920 49884 ft 1096 kts 242°
2026-05-04 17:02 42.48637 -65.74749 49884 ft 1096 kts 242°
2026-05-04 17:03 42.38143 -66.02242 49877 ft 1096 kts 242°
2026-05-04 17:03 42.27577 -66.29653 49896 ft 1096 kts 242°
2026-05-04 17:04 42.13402 -66.66026 49905 ft 1095 kts 242°
2026-05-04 17:05 41.99180 -67.02283 49850 ft 1095 kts 241°
2026-05-04 17:06 41.90705 -67.19222 49925 ft 1093 kts 228°
2026-05-04 17:06 41.85338 -67.26404 49951 ft 1093 kts 220°
2026-05-04 17:07 41.72444 -67.37155 49981 ft 1098 kts 204°
2026-05-04 17:07 41.70053 -67.38431 49977 ft 1099 kts 201°
2026-05-04 17:07 41.57658 -67.42282 49975 ft 1108 kts 187°
2026-05-04 17:07 41.49937 -67.42572 49974 ft 1114 kts 179°
2026-05-04 17:08 41.27477 -67.34287 49997 ft 1137 kts 154°
2026-05-04 17:09 41.14701 -67.21753 50001 ft 1155 kts 137°
2026-05-04 17:09 41.06369 -67.07837 50004 ft 1169 kts 123°
2026-05-04 17:10 40.81983 -66.66249 50022 ft 1139 kts 151°
2026-05-04 17:11 40.67751 -66.57608 50036 ft 1120 kts 168°
2026-05-04 17:11 40.52478 -66.54895 50046 ft 1103 kts 184°
2026-05-04 17:12 40.44870 -66.55822 50051 ft 1096 kts 193°
2026-05-04 17:12 40.30534 -66.62091 50070 ft 1085 kts 210°
2026-05-04 17:13 40.13596 -66.81099 50101 ft 1077 kts 235°
2026-05-04 17:14 40.05072 -67.08003 50164 ft 1082 kts 261°
2026-05-04 17:14 40.04473 -67.17795 50190 ft 1087 kts 269°
2026-05-04 17:14 40.06190 -67.37453 50079 ft 1092 kts 272°
2026-05-04 17:15 40.06390 -67.47329 50085 ft 1087 kts 265°
2026-05-04 17:15 40.05094 -67.66983 49951 ft 1087 kts 262°
2026-05-04 17:16 40.03544 -67.86615 49966 ft 1090 kts 266°
2026-05-04 17:17 40.02759 -68.26185 50195 ft 1092 kts 267°
2026-05-04 17:17 40.01974 -68.55891 50945 ft 1091 kts 267°
2026-05-04 17:18 40.01697 -68.65785 51021 ft 1092 kts 266°
2026-05-04 17:19 40.00523 -69.04850 50990 ft 1028 kts 266°
2026-05-04 17:19 39.99938 -69.22826 50982 ft 957 kts 266°
2026-05-04 17:20 39.99366 -69.39618 49986 ft 902 kts 266°
2026-05-04 17:20 39.98804 -69.55480 48354 ft 848 kts 266°
2026-05-04 17:20 39.98529 -69.63039 47533 ft 820 kts 266°
2026-05-04 17:21 39.97994 -69.77359 45923 ft 761 kts 265°
2026-05-04 17:21 39.97484 -69.90583 44294 ft 701 kts 265°
2026-05-04 17:22 39.97239 -69.96795 43443 ft 672 kts 265°
2026-05-04 17:22 39.97002 -70.02748 42637 ft 644 kts 265°
2026-05-04 17:23 39.96323 -70.19286 40400 ft 597 kts 265°
2026-05-04 17:23 39.96096 -70.24723 39696 ft 589 kts 265°
2026-05-04 17:23 39.95655 -70.35124 38273 ft 569 kts 265°
2026-05-04 17:24 39.95434 -70.40241 37463 ft 561 kts 265°
2026-05-04 17:24 39.94776 -70.55164 35180 ft 538 kts 265°
2026-05-04 17:25 39.94560 -70.59986 34432 ft 528 kts 265°
2026-05-04 17:25 39.94129 -70.69436 32842 ft 518 kts 265°
2026-05-04 17:26 39.93699 -70.78723 31329 ft 508 kts 266°
2026-05-04 17:26 39.93059 -70.92244 28923 ft 490 kts 266°
2026-05-04 17:27 39.92636 -71.01007 27253 ft 480 kts 266°
2026-05-04 17:27 39.92214 -71.09592 25679 ft 470 kts 266°
2026-05-04 17:28 39.91795 -71.18020 24185 ft 462 kts 266°
2026-05-04 17:29 39.91169 -71.30360 21762 ft 448 kts 267°
2026-05-04 17:29 39.90500 -71.43280 19448 ft 482 kts 267°
2026-05-04 17:30 39.89852 -71.55554 17107 ft 440 kts 266°
2026-05-04 17:31 39.89430 -71.63415 15535 ft 432 kts 266°
2026-05-04 17:31 39.88799 -71.74950 14217 ft 422 kts 266°
2026-05-04 17:32 39.88367 -71.82749 14105 ft 431 kts 266°
2026-05-04 17:33 39.87702 -71.94561 14076 ft 452 kts 266°
2026-05-04 17:33 39.87471 -71.98622 14074 ft 448 kts 266°
2026-05-04 17:34 39.86801 -72.10783 14065 ft 448 kts 271°
2026-05-04 17:34 39.87350 -72.14732 14088 ft 450 kts 290°
2026-05-04 17:35 39.91541 -72.25691 14067 ft 452 kts 296°
2026-05-04 17:35 39.94504 -72.32908 14064 ft 452 kts 296°
2026-05-04 17:35 39.95876 -72.36645 14056 ft 451 kts 292°
2026-05-04 17:36 39.97085 -72.40350 14053 ft 450 kts 291°
2026-05-04 17:36 39.98278 -72.44131 14048 ft 450 kts 291°
2026-05-04 17:36 39.99460 -72.47899 14041 ft 450 kts 291°
2026-05-04 17:36 40.00651 -72.51682 14033 ft 450 kts 291°
2026-05-04 17:37 40.01843 -72.55457 14031 ft 450 kts 291°
2026-05-04 17:37 40.03052 -72.59283 14031 ft 450 kts 291°
2026-05-04 17:37 40.04227 -72.63008 14027 ft 450 kts 291°
2026-05-04 17:37 40.05414 -72.66779 14022 ft 450 kts 291°
2026-05-04 17:38 40.06602 -72.70554 14022 ft 449 kts 291°
2026-05-04 17:38 40.07788 -72.74331 14025 ft 449 kts 291°
2026-05-04 17:38 40.08972 -72.78104 14024 ft 449 kts 291°
2026-05-04 17:38 40.10154 -72.81878 14019 ft 449 kts 291°
2026-05-04 17:39 40.12513 -72.89426 14018 ft 449 kts 291°
2026-05-04 17:39 40.13693 -72.93210 14014 ft 449 kts 291°
2026-05-04 17:39 40.14870 -72.96987 14013 ft 449 kts 291°
2026-05-04 17:40 40.16045 -73.00766 14009 ft 449 kts 291°
2026-05-04 17:40 40.17218 -73.04539 14008 ft 449 kts 291°
2026-05-04 17:40 40.18391 -73.08322 14010 ft 449 kts 291°
2026-05-04 17:40 40.19612 -73.12073 13996 ft 449 kts 297°
2026-05-04 17:41 40.21566 -73.15261 14036 ft 455 kts 318°
2026-05-04 17:41 40.24303 -73.17391 14057 ft 463 kts 333°
2026-05-04 17:41 40.27299 -73.18967 14043 ft 464 kts 336°
2026-05-04 17:41 40.30311 -73.20478 14030 ft 463 kts 335°
2026-05-04 17:42 40.33314 -73.22021 14019 ft 463 kts 335°
2026-05-04 17:42 40.36301 -73.23598 14015 ft 462 kts 334°
2026-05-04 17:42 40.39270 -73.25207 13996 ft 462 kts 334°
2026-05-04 17:42 40.42195 -73.26936 13985 ft 460 kts 330°
2026-05-04 17:43 40.45007 -73.28924 13986 ft 459 kts 328°
2026-05-04 17:43 40.47744 -73.30944 13986 ft 459 kts 327°
2026-05-04 17:43 40.50514 -73.33010 13980 ft 459 kts 327°
2026-05-04 17:43 40.53295 -73.35081 13774 ft 462 kts 327°
2026-05-04 17:44 40.56072 -73.37141 12948 ft 449 kts 328°
2026-05-04 17:44 40.58725 -73.39104 12139 ft 427 kts 327°
2026-05-04 17:44 40.61255 -73.40982 11352 ft 410 kts 327°
2026-05-04 17:44 40.63695 -73.42799 10603 ft 396 kts 327°
2026-05-04 17:45 40.66057 -73.44557 9859 ft 385 kts 327°
2026-05-04 17:45 40.68482 -73.45899 9092 ft 382 kts 346°
2026-05-04 17:45 40.71130 -73.45834 8353 ft 385 kts 11°
2026-05-04 17:45 40.73548 -73.44300 7657 ft 386 kts 33°
2026-05-04 17:46 40.75814 -73.42507 6949 ft 374 kts 15°
2026-05-04 17:46 40.78321 -73.42061 6308 ft 359 kts 349°
2026-05-04 17:46 40.80618 -73.43076 5622 ft 344 kts 322°
2026-05-04 17:46 40.82234 -73.45293 4947 ft 332 kts 295°
2026-05-04 17:47 40.82823 -73.48163 4246 ft 324 kts 268°
2026-05-04 17:47 40.82619 -73.51110 3639 ft 320 kts 259°
2026-05-04 17:47 40.82183 -73.53944 3308 ft 309 kts 254°
2026-05-04 17:47 40.81623 -73.56613 3119 ft 294 kts 253°
2026-05-04 17:48 40.81058 -73.59124 3097 ft 276 kts 250°
2026-05-04 17:48 40.80160 -73.61258 3087 ft 260 kts 233°
2026-05-04 17:48 40.78137 -73.64141 3095 ft 236 kts 224°
2026-05-04 17:49 40.76953 -73.65501 3079 ft 222 kts 221°
2026-05-04 17:49 40.75760 -73.66662 3078 ft 205 kts 216°
2026-05-04 17:49 40.74592 -73.67633 3142 ft 187 kts 214°
2026-05-04 17:49 40.73525 -73.68465 2940 ft 180 kts 213°
2026-05-04 17:50 40.72380 -73.69299 2354 ft 191 kts 211°
2026-05-04 17:50 40.71208 -73.70109 1860 ft 188 kts 211°
2026-05-04 17:50 40.70112 -73.70934 1598 ft 175 kts 214°
2026-05-04 17:50 40.69121 -73.71776 1271 ft 164 kts 215°
2026-05-04 17:51 40.68179 -73.72571 982 ft 159 kts 214°
2026-05-04 17:51 40.67255 -73.73368 666 ft 160 kts 212°
2026-05-04 17:51 40.66306 -73.74127 412 ft 156 kts 206°
2026-05-04 17:51 40.65419 -73.74786 305 ft 140 kts 209°
2026-05-04 17:52 40.64579 -73.75448 107 ft 140 kts 208°
2026-05-04 17:52 40.63774 -73.76065 29 ft 125 kts 207°
2026-05-04 17:52 40.63199 -73.76519 28 ft 67 kts 211°
2026-05-04 17:52 40.62993 -73.76732 27 ft 26 kts 236°
2026-05-04 17:53 40.62929 -73.76924 27 ft 20 kts 259°
2026-05-04 17:53 40.62970 -73.77071 27 ft 15 kts 300°
2026-05-04 17:53 40.63034 -73.77211 28 ft 20 kts 302°
2026-05-04 17:53 40.63111 -73.77373 28 ft 22 kts 302°
2026-05-04 17:54 40.63181 -73.77524 29 ft 15 kts 301°
2026-05-04 17:54 40.63224 -73.77621 30 ft 10 kts 301°
2026-05-04 17:54 40.63254 -73.77686 30 ft 7 kts 301°
2026-05-04 17:54 40.63282 -73.77749 30 ft 10 kts 301°
2026-05-04 17:55 40.63327 -73.77849 29 ft 14 kts 300°